GXA414 KFLL-KMCO

Flight info

Callsign GXA414
Flight time 0h 34m
Altitude 19000
Route FRSBE2 WAPOM MUNGI1
Aircraft A319/M-SDE3FGHIRWY/LB1

Departure

Time 2026-04-21 18:41
Airport Fort Lauderdale Hollywood International Airport (KFLL)

Arrival

Time 2026-04-21 19:16
Airport Orlando International Airport (KMCO)
Time Latitude Longitude Altitude Speed Heading
2026-04-21 18:31 26.07355 -80.15695 16 ft 0 kts 43°
2026-04-21 18:37 26.07356 -80.15694 17 ft 2 kts 43°
2026-04-21 18:37 26.07378 -80.15681 19 ft 6 kts 15°
2026-04-21 18:37 26.07425 -80.15699 16 ft 9 kts 325°
2026-04-21 18:37 26.07475 -80.15751 17 ft 11 kts 310°
2026-04-21 18:38 26.07534 -80.15820 17 ft 13 kts 316°
2026-04-21 18:38 26.07567 -80.15914 17 ft 14 kts 273°
2026-04-21 18:38 26.07568 -80.16032 17 ft 16 kts 270°
2026-04-21 18:38 26.07569 -80.16165 17 ft 18 kts 270°
2026-04-21 18:39 26.07569 -80.16262 17 ft 19 kts 270°
2026-04-21 18:39 26.07571 -80.16468 17 ft 19 kts 271°
2026-04-21 18:39 26.07571 -80.16577 17 ft 9 kts 270°
2026-04-21 18:39 26.07583 -80.16634 17 ft 0 kts 313°
2026-04-21 18:40 26.07637 -80.16644 17 ft 14 kts
2026-04-21 18:41 26.07693 -80.16606 18 ft 16 kts 66°
2026-04-21 18:41 26.07690 -80.16312 21 ft 83 kts 90°
2026-04-21 18:41 26.07701 -80.15382 242 ft 138 kts 88°
2026-04-21 18:41 26.07709 -80.14306 1172 ft 142 kts 85°
2026-04-21 18:42 26.07727 -80.13192 2081 ft 148 kts 84°
2026-04-21 18:42 26.07768 -80.11956 2798 ft 173 kts 84°
2026-04-21 18:42 26.07838 -80.10546 3567 ft 198 kts 80°
2026-04-21 18:42 26.08348 -80.08979 3929 ft 232 kts 60°
2026-04-21 18:43 26.09368 -80.07543 3998 ft 241 kts 44°
2026-04-21 18:43 26.10755 -80.06481 4016 ft 245 kts 28°
2026-04-21 18:43 26.12357 -80.05804 4024 ft 247 kts 22°
2026-04-21 18:43 26.13986 -80.05208 4017 ft 249 kts 17°
2026-04-21 18:44 26.15724 -80.05024 4039 ft 254 kts
2026-04-21 18:44 26.17477 -80.05363 4051 ft 260 kts 347°
2026-04-21 18:44 26.19213 -80.06045 4732 ft 267 kts 345°
2026-04-21 18:44 26.20918 -80.06869 6136 ft 272 kts 332°
2026-04-21 18:45 26.22382 -80.08234 7407 ft 279 kts 312°
2026-04-21 18:45 26.23402 -80.10077 8720 ft 282 kts 294°
2026-04-21 18:45 26.24120 -80.12115 10075 ft 283 kts 292°
2026-04-21 18:45 26.24861 -80.14216 10881 ft 302 kts 292°
2026-04-21 18:46 26.25748 -80.16392 11748 ft 313 kts 301°
2026-04-21 18:46 26.26927 -80.18463 12588 ft 320 kts 303°
2026-04-21 18:46 26.28125 -80.20558 12892 ft 321 kts 303°
2026-04-21 18:46 26.29320 -80.22663 13111 ft 325 kts 303°
2026-04-21 18:47 26.30537 -80.24811 14143 ft 328 kts 302°
2026-04-21 18:47 26.31758 -80.26965 15163 ft 330 kts 302°
2026-04-21 18:47 26.32986 -80.29129 16168 ft 331 kts 302°
2026-04-21 18:47 26.34225 -80.31313 17139 ft 335 kts 302°
2026-04-21 18:48 26.35476 -80.33520 18081 ft 339 kts 302°
2026-04-21 18:48 26.36741 -80.35751 18862 ft 343 kts 302°
2026-04-21 18:48 26.38020 -80.38006 19138 ft 344 kts 302°
2026-04-21 18:48 26.39299 -80.40268 19246 ft 346 kts 302°
2026-04-21 18:49 26.40590 -80.42552 19273 ft 350 kts 302°
2026-04-21 18:49 26.41891 -80.44852 19275 ft 351 kts 302°
2026-04-21 18:49 26.42751 -80.46374 19273 ft 351 kts 302°
2026-04-21 18:49 26.44494 -80.49455 19272 ft 351 kts 302°
2026-04-21 18:50 26.45796 -80.51763 19273 ft 351 kts 302°
2026-04-21 18:50 26.47151 -80.54028 19274 ft 352 kts 308°
2026-04-21 18:50 26.48914 -80.55918 19273 ft 354 kts 322°
2026-04-21 18:50 26.51067 -80.57252 19273 ft 357 kts 336°
2026-04-21 18:51 26.53453 -80.58063 19275 ft 359 kts 342°
2026-04-21 18:51 26.55860 -80.58816 19276 ft 359 kts 342°
2026-04-21 18:51 26.58263 -80.59569 19274 ft 359 kts 341°
2026-04-21 18:51 26.60632 -80.60319 19278 ft 359 kts 341°
2026-04-21 18:52 26.63041 -80.61085 19279 ft 359 kts 341°
2026-04-21 18:52 26.65443 -80.61852 19280 ft 359 kts 341°
2026-04-21 18:52 26.67848 -80.62621 19280 ft 359 kts 341°
2026-04-21 18:52 26.70254 -80.63388 19282 ft 359 kts 341°
2026-04-21 18:53 26.72664 -80.64155 19283 ft 359 kts 341°
2026-04-21 18:53 26.75070 -80.64920 19298 ft 359 kts 341°
2026-04-21 18:53 26.77479 -80.65688 19311 ft 359 kts 341°
2026-04-21 18:53 26.79887 -80.66455 19307 ft 360 kts 341°
2026-04-21 18:54 26.82298 -80.67224 19305 ft 360 kts 341°
2026-04-21 18:54 26.84701 -80.67990 19302 ft 359 kts 341°
2026-04-21 18:54 26.87109 -80.68759 19295 ft 360 kts 341°
2026-04-21 18:54 26.89488 -80.69522 19297 ft 360 kts 341°
2026-04-21 18:55 26.91112 -80.70042 19296 ft 360 kts 341°
2026-04-21 18:55 26.94275 -80.71139 19298 ft 359 kts 339°
2026-04-21 18:55 26.96639 -80.72034 19294 ft 359 kts 339°
2026-04-21 18:55 26.98996 -80.72956 19289 ft 358 kts 338°
2026-04-21 18:56 27.01347 -80.73880 19289 ft 359 kts 338°
2026-04-21 18:56 27.03711 -80.74798 19305 ft 358 kts 339°
2026-04-21 18:56 27.06077 -80.75705 19317 ft 359 kts 339°
2026-04-21 18:56 27.08442 -80.76604 19313 ft 359 kts 339°
2026-04-21 18:57 27.10813 -80.77501 19308 ft 359 kts 339°
2026-04-21 18:57 27.13185 -80.78394 19304 ft 359 kts 339°
2026-04-21 18:57 27.15525 -80.79277 19299 ft 360 kts 339°
2026-04-21 18:57 27.17897 -80.80174 19297 ft 360 kts 339°
2026-04-21 18:58 27.20271 -80.81070 19293 ft 360 kts 339°
2026-04-21 18:58 27.22493 -80.81912 19295 ft 360 kts 339°
2026-04-21 18:58 27.24865 -80.82814 19292 ft 360 kts 339°
2026-04-21 18:58 27.27238 -80.83721 19290 ft 360 kts 339°
2026-04-21 18:59 27.29613 -80.84627 19295 ft 360 kts 339°
2026-04-21 18:59 27.31986 -80.85529 19304 ft 359 kts 339°
2026-04-21 18:59 27.34376 -80.86360 19314 ft 360 kts 341°
2026-04-21 18:59 27.36798 -80.87099 19312 ft 361 kts 343°
2026-04-21 19:00 27.39230 -80.87792 19308 ft 360 kts 343°
2026-04-21 19:00 27.41661 -80.88473 19305 ft 361 kts 343°
2026-04-21 19:00 27.44071 -80.89155 19302 ft 360 kts 343°
2026-04-21 19:00 27.46500 -80.89858 19303 ft 361 kts 343°
2026-04-21 19:01 27.48931 -80.90571 19075 ft 361 kts 343°
2026-04-21 19:01 27.51349 -80.91284 18828 ft 358 kts 343°
2026-04-21 19:01 27.53766 -80.92005 18603 ft 357 kts 343°
2026-04-21 19:01 27.56162 -80.92723 18350 ft 356 kts 343°
2026-04-21 19:02 27.58548 -80.93438 18088 ft 354 kts 343°
2026-04-21 19:02 27.60925 -80.94150 17513 ft 353 kts 343°
2026-04-21 19:02 27.63293 -80.94860 16943 ft 350 kts 343°
2026-04-21 19:02 27.65603 -80.95551 16388 ft 346 kts 343°
2026-04-21 19:03 27.67919 -80.96240 15857 ft 342 kts 343°
2026-04-21 19:03 27.70209 -80.96923 15327 ft 338 kts 344°
2026-04-21 19:03 27.72477 -80.97600 14805 ft 335 kts 344°
2026-04-21 19:03 27.74726 -80.98269 14282 ft 333 kts 344°
2026-04-21 19:04 27.76953 -80.98932 13724 ft 330 kts 344°
2026-04-21 19:04 27.79162 -80.99591 13175 ft 327 kts 345°
2026-04-21 19:04 27.81347 -81.00246 12637 ft 323 kts 345°
2026-04-21 19:04 27.83510 -81.00898 12111 ft 320 kts 345°
2026-04-21 19:05 27.85652 -81.01541 11573 ft 317 kts 345°
2026-04-21 19:05 27.87774 -81.02177 11038 ft 314 kts 345°
2026-04-21 19:05 27.89884 -81.02812 10504 ft 312 kts 345°
2026-04-21 19:05 27.91926 -81.03428 10282 ft 300 kts 345°
2026-04-21 19:06 27.93887 -81.04066 10102 ft 288 kts 341°
2026-04-21 19:06 27.95747 -81.04849 9837 ft 282 kts 340°
2026-04-21 19:06 27.97585 -81.05626 9724 ft 282 kts 340°
2026-04-21 19:06 27.99426 -81.06404 9359 ft 284 kts 341°
2026-04-21 19:07 28.01285 -81.07194 8868 ft 284 kts 341°
2026-04-21 19:07 28.03120 -81.07971 8392 ft 280 kts 342°
2026-04-21 19:07 28.04943 -81.08743 7831 ft 279 kts 342°
2026-04-21 19:07 28.06756 -81.09512 7257 ft 278 kts 343°
2026-04-21 19:08 28.08567 -81.10279 6681 ft 278 kts 343°
2026-04-21 19:08 28.10360 -81.11035 6346 ft 268 kts 343°
2026-04-21 19:08 28.12052 -81.11747 6207 ft 251 kts 344°
2026-04-21 19:08 28.13650 -81.12417 6094 ft 238 kts 344°
2026-04-21 19:09 28.15161 -81.13059 5988 ft 230 kts 342°
2026-04-21 19:09 28.16457 -81.14159 6002 ft 239 kts 317°
2026-04-21 19:09 28.17522 -81.15605 5981 ft 240 kts 312°
2026-04-21 19:09 28.18419 -81.17203 5733 ft 240 kts 303°
2026-04-21 19:10 28.19234 -81.18849 5494 ft 239 kts 303°
2026-04-21 19:10 28.20042 -81.20490 5244 ft 238 kts 303°
2026-04-21 19:10 28.20857 -81.22133 4982 ft 237 kts 303°
2026-04-21 19:10 28.21657 -81.23748 4731 ft 234 kts 303°
2026-04-21 19:11 28.22449 -81.25343 4480 ft 230 kts 303°
2026-04-21 19:11 28.23226 -81.26909 4226 ft 225 kts 303°
2026-04-21 19:11 28.23973 -81.28418 3976 ft 220 kts 303°
2026-04-21 19:11 28.24709 -81.29908 3769 ft 212 kts 303°
2026-04-21 19:12 28.25235 -81.30852 3593 ft 206 kts 312°
2026-04-21 19:12 28.26703 -81.32149 3044 ft 203 kts 341°
2026-04-21 19:12 28.28040 -81.32512 2749 ft 195 kts
2026-04-21 19:12 28.29381 -81.32530 2487 ft 192 kts
2026-04-21 19:13 28.30719 -81.32545 2234 ft 193 kts
2026-04-21 19:13 28.32060 -81.32560 1966 ft 192 kts
2026-04-21 19:13 28.33370 -81.32576 1729 ft 181 kts
2026-04-21 19:13 28.34539 -81.32593 1506 ft 154 kts
2026-04-21 19:14 28.35546 -81.32604 1314 ft 136 kts
2026-04-21 19:14 28.36451 -81.32613 1139 ft 125 kts
2026-04-21 19:14 28.37303 -81.32620 969 ft 121 kts
2026-04-21 19:14 28.38135 -81.32628 812 ft 118 kts
2026-04-21 19:15 28.38947 -81.32637 651 ft 115 kts
2026-04-21 19:15 28.39749 -81.32644 475 ft 116 kts
2026-04-21 19:15 28.40555 -81.32656 333 ft 116 kts 12°
2026-04-21 19:15 28.41364 -81.32664 196 ft 116 kts
2026-04-21 19:16 28.42141 -81.32677 100 ft 99 kts
2026-04-21 19:16 28.42679 -81.32674 99 ft 53 kts 357°
2026-04-21 19:16 28.42902 -81.32705 103 ft 23 kts 309°
2026-04-21 19:16 28.42909 -81.32827 100 ft 3 kts 271°
2026-04-21 19:17 28.42909 -81.32831 100 ft 0 kts 271°
2026-04-21 19:17 28.42909 -81.32836 100 ft 3 kts 271°
2026-04-21 19:17 28.42906 -81.32885 99 ft 9 kts 256°
2026-04-21 19:18 28.42845 -81.32924 99 ft 12 kts 178°
2026-04-21 19:18 28.42751 -81.32922 100 ft 15 kts 180°
2026-04-21 19:18 28.42642 -81.32922 98 ft 17 kts 180°
2026-04-21 19:18 28.42516 -81.32920 98 ft 19 kts 179°
2026-04-21 19:19 28.42375 -81.32918 98 ft 22 kts 179°
2026-04-21 19:19 28.42227 -81.32917 100 ft 19 kts 180°
2026-04-21 19:19 28.42142 -81.32918 99 ft 8 kts 182°
2026-04-21 19:19 28.42103 -81.32927 98 ft 9 kts 212°
2026-04-21 19:20 28.42084 -81.33002 100 ft 12 kts 266°
2026-04-21 19:20 28.42082 -81.33089 98 ft 7 kts 292°
2026-04-21 19:20 28.42123 -81.33094 98 ft 4 kts 359°
2026-04-21 19:20 28.42130 -81.33094 98 ft 0 kts 359°